Time,TemperatureF,DewpointF,PressureIn,WindDirection,WindDirectionDegrees,WindSpeedMPH,WindSpeedGustMPH,Humidity,HourlyPrecipIn,Conditions,Clouds,dailyrainin,SoftwareType,DateUTC
2013-01-17 00:00:00,20.1,9.5,30.05,East,90,15.0,18.0,63,0.00,,,0.00,meteohub,2013-01-17 05:00:00,
2013-01-17 00:01:00,20.1,9.5,30.05,East,90,19.0,20.0,63,0.00,,,0.00,meteohub,2013-01-17 05:01:00,
2013-01-17 00:02:00,19.8,9.1,30.05,East,90,17.0,20.0,63,0.00,,,0.00,meteohub,2013-01-17 05:02:00,
2013-01-17 00:03:00,19.8,9.1,30.06,East,90,12.0,20.0,63,0.00,,,0.00,meteohub,2013-01-17 05:03:00,
2013-01-17 00:08:00,19.6,9.0,30.05,East,90,15.0,20.0,63,0.00,,,0.00,meteohub,2013-01-17 05:08:00,
2013-01-17 00:13:00,19.4,8.8,30.05,East,90,17.0,20.0,63,0.00,,,0.00,meteohub,2013-01-17 05:13:00,
2013-01-17 00:18:00,19.0,7.5,30.06,East,90,14.0,21.0,60,0.00,,,0.00,meteohub,2013-01-17 05:18:00,
2013-01-17 00:23:00,19.0,7.2,30.06,NE,45,14.0,21.0,59,0.00,,,0.00,meteohub,2013-01-17 05:23:00,
2013-01-17 00:28:00,19.0,6.6,30.06,East,90,12.0,21.0,58,0.00,,,0.00,meteohub,2013-01-17 05:28:00,
2013-01-17 00:33:00,19.0,6.3,30.07,NE,45,17.0,18.0,57,0.00,,,0.00,meteohub,2013-01-17 05:33:00,
2013-01-17 00:38:00,19.0,5.2,30.07,East,90,19.0,19.0,54,0.00,,,0.00,meteohub,2013-01-17 05:38:00,
2013-01-17 00:43:00,18.9,4.6,30.07,East,90,18.0,22.0,53,0.00,,,0.00,meteohub,2013-01-17 05:43:00,
2013-01-17 00:48:00,18.7,4.5,30.07,NE,45,14.0,22.0,53,0.00,,,0.00,meteohub,2013-01-17 05:48:00,
2013-01-17 00:53:00,18.7,3.9,30.08,NE,45,13.0,22.0,52,0.00,,,0.00,meteohub,2013-01-17 05:53:00,
2013-01-17 00:58:00,18.3,4.1,30.09,East,90,13.0,18.0,53,0.00,,,0.00,meteohub,2013-01-17 05:58:00,
2013-01-17 01:03:00,18.3,4.1,30.09,NE,45,15.0,17.0,53,0.00,,,0.00,meteohub,2013-01-17 06:03:00,
2013-01-17 01:08:00,18.0,3.7,30.09,East,90,13.0,17.0,53,0.00,,,0.00,meteohub,2013-01-17 06:08:00,
2013-01-17 01:13:00,17.6,3.0,30.09,East,90,17.0,17.0,52,0.00,,,0.00,meteohub,2013-01-17 06:13:00,
2013-01-17 01:18:00,17.2,3.0,30.09,East,90,12.0,17.0,53,0.00,,,0.00,meteohub,2013-01-17 06:18:00,
2013-01-17 01:23:00,16.9,2.7,30.10,East,90,17.0,20.0,53,0.00,,,0.00,meteohub,2013-01-17 06:23:00,
2013-01-17 01:28:00,16.7,2.5,30.10,NE,45,13.0,20.0,53,0.00,,,0.00,meteohub,2013-01-17 06:28:00,
2013-01-17 01:33:00,16.5,2.3,30.11,East,90,16.0,17.0,53,0.00,,,0.00,meteohub,2013-01-17 06:33:00,
2013-01-17 01:38:00,16.3,2.1,30.11,East,90,12.0,18.0,53,0.00,,,0.00,meteohub,2013-01-17 06:38:00,
2013-01-17 01:43:00,16.2,2.1,30.11,East,90,11.0,18.0,53,0.00,,,0.00,meteohub,2013-01-17 06:43:00,
2013-01-17 01:48:00,16.0,1.9,30.11,SE,135,8.0,18.0,53,0.00,,,0.00,meteohub,2013-01-17 06:48:00,
2013-01-17 01:53:00,15.8,1.8,30.12,East,90,14.0,16.0,53,0.00,,,0.00,meteohub,2013-01-17 06:53:00,
2013-01-17 01:58:00,15.8,1.8,30.12,East,90,14.0,15.0,53,0.00,,,0.00,meteohub,2013-01-17 06:58:00,
2013-01-17 02:04:00,15.6,1.9,30.12,East,90,13.0,15.0,54,0.00,,,0.00,meteohub,2013-01-17 07:04:00,
2013-01-17 02:09:00,15.6,1.9,30.13,East,90,14.0,15.0,54,0.00,,,0.00,meteohub,2013-01-17 07:09:00,
2013-01-17 02:14:00,15.6,1.9,30.13,SE,135,13.0,15.0,54,0.00,,,0.00,meteohub,2013-01-17 07:14:00,
2013-01-17 02:19:00,15.4,1.8,30.14,East,90,15.0,15.0,54,0.00,,,0.00,meteohub,2013-01-17 07:19:00,
2013-01-17 02:24:00,15.4,1.4,30.14,East,90,15.0,15.0,53,0.00,,,0.00,meteohub,2013-01-17 07:24:00,
2013-01-17 02:29:00,15.4,1.8,30.14,East,90,10.0,16.0,54,0.00,,,0.00,meteohub,2013-01-17 07:29:00,
2013-01-17 02:34:00,15.4,1.8,30.15,East,90,10.0,16.0,54,0.00,,,0.00,meteohub,2013-01-17 07:34:00,
2013-01-17 02:39:00,15.4,1.8,30.15,East,90,8.0,16.0,54,0.00,,,0.00,meteohub,2013-01-17 07:39:00,
2013-01-17 02:44:00,15.4,1.8,30.17,East,90,12.0,15.0,54,0.00,,,0.00,meteohub,2013-01-17 07:44:00,
2013-01-17 02:49:00,15.6,1.9,30.17,East,90,13.0,13.0,54,0.00,,,0.00,meteohub,2013-01-17 07:49:00,
2013-01-17 02:54:00,15.6,1.9,30.17,East,90,9.0,12.0,54,0.00,,,0.00,meteohub,2013-01-17 07:54:00,
2013-01-17 02:59:00,15.4,1.4,30.18,East,90,10.0,13.0,53,0.00,,,0.00,meteohub,2013-01-17 07:59:00,
2013-01-17 03:04:00,15.4,1.4,30.17,ENE,68,11.0,15.0,53,0.00,,,0.00,meteohub,2013-01-17 08:04:00,
2013-01-17 03:09:00,15.3,1.2,30.17,East,90,11.0,15.0,53,0.00,,,0.00,meteohub,2013-01-17 08:09:00,
2013-01-17 03:14:00,15.1,1.0,30.17,ENE,68,17.0,17.0,53,0.00,,,0.00,meteohub,2013-01-17 08:14:00,
2013-01-17 03:19:00,14.9,0.5,30.17,NE,45,15.0,16.0,52,0.00,,,0.00,meteohub,2013-01-17 08:19:00,
2013-01-17 03:24:00,14.7,0.3,30.18,East,90,17.0,20.0,52,0.00,,,0.00,meteohub,2013-01-17 08:24:00,
2013-01-17 03:29:00,14.5,0.1,30.18,East,90,14.0,20.0,52,0.00,,,0.00,meteohub,2013-01-17 08:29:00,
2013-01-17 03:34:00,14.5,0.5,30.18,NE,45,11.0,20.0,53,0.00,,,0.00,meteohub,2013-01-17 08:34:00,
2013-01-17 03:39:00,14.5,0.5,30.18,East,90,12.0,17.0,53,0.00,,,0.00,meteohub,2013-01-17 08:39:00,
2013-01-17 03:44:00,14.4,0.3,30.18,East,90,8.0,15.0,53,0.00,,,0.00,meteohub,2013-01-17 08:44:00,
2013-01-17 03:49:00,14.4,0.3,30.18,East,90,11.0,14.0,53,0.00,,,0.00,meteohub,2013-01-17 08:49:00,
2013-01-17 03:54:00,14.4,0.0,30.18,East,90,11.0,15.0,52,0.00,,,0.00,meteohub,2013-01-17 08:54:00,
2013-01-17 03:59:00,14.4,0.0,30.18,East,90,16.0,16.0,52,0.00,,,0.00,meteohub,2013-01-17 08:59:00,
2013-01-17 04:04:00,14.4,0.0,30.19,NE,45,17.0,17.0,52,0.00,,,0.00,meteohub,2013-01-17 09:04:00,
2013-01-17 04:09:00,14.2,-0.6,30.18,East,90,19.0,19.0,51,0.00,,,0.00,meteohub,2013-01-17 09:09:00,
2013-01-17 04:14:00,14.2,-0.6,30.19,East,90,13.0,17.0,51,0.00,,,0.00,meteohub,2013-01-17 09:14:00,
2013-01-17 04:19:00,14.2,-0.6,30.19,NE,45,10.0,19.0,51,0.00,,,0.00,meteohub,2013-01-17 09:19:00,
2013-01-17 04:24:00,14.0,-0.8,30.19,East,90,13.0,19.0,51,0.00,,,0.00,meteohub,2013-01-17 09:24:00,
2013-01-17 04:29:00,14.0,-0.4,30.19,East,90,12.0,17.0,52,0.00,,,0.00,meteohub,2013-01-17 09:29:00,
2013-01-17 04:34:00,13.8,-0.6,30.19,East,90,15.0,15.0,52,0.00,,,0.00,meteohub,2013-01-17 09:34:00,
2013-01-17 04:39:00,13.8,-0.6,30.19,NE,45,12.0,15.0,52,0.00,,,0.00,meteohub,2013-01-17 09:39:00,
2013-01-17 04:44:00,13.8,-0.6,30.19,ENE,68,9.0,15.0,52,0.00,,,0.00,meteohub,2013-01-17 09:44:00,
2013-01-17 04:49:00,14.0,-0.4,30.19,East,90,8.0,15.0,52,0.00,,,0.00,meteohub,2013-01-17 09:49:00,
2013-01-17 04:54:00,14.0,0.0,30.20,East,90,11.0,15.0,53,0.00,,,0.00,meteohub,2013-01-17 09:54:00,
2013-01-17 04:59:00,13.8,-0.2,30.20,SE,135,11.0,12.0,53,0.00,,,0.00,meteohub,2013-01-17 09:59:00,
2013-01-17 05:04:00,13.8,-0.2,30.20,SE,135,11.0,14.0,53,0.00,,,0.00,meteohub,2013-01-17 10:04:00,
2013-01-17 05:09:00,13.6,-0.4,30.21,NE,45,11.0,14.0,53,0.00,,,0.00,meteohub,2013-01-17 10:09:00,
2013-01-17 05:14:00,13.6,-0.8,30.20,East,90,11.0,14.0,52,0.00,,,0.00,meteohub,2013-01-17 10:14:00,
2013-01-17 05:19:00,13.5,-0.9,30.20,ENE,68,11.0,17.0,52,0.00,,,0.00,meteohub,2013-01-17 10:19:00,
2013-01-17 05:24:00,13.6,-0.8,30.21,East,90,12.0,17.0,52,0.00,,,0.00,meteohub,2013-01-17 10:24:00,
2013-01-17 05:29:00,13.6,-0.4,30.21,East,90,13.0,17.0,53,0.00,,,0.00,meteohub,2013-01-17 10:29:00,
2013-01-17 05:34:00,13.5,-0.9,30.21,NE,45,12.0,15.0,52,0.00,,,0.00,meteohub,2013-01-17 10:34:00,
2013-01-17 05:39:00,13.5,-0.4,30.21,East,90,13.0,15.0,53,0.00,,,0.00,meteohub,2013-01-17 10:39:00,
2013-01-17 05:44:00,13.5,-0.4,30.21,East,90,11.0,16.0,53,0.00,,,0.00,meteohub,2013-01-17 10:44:00,
2013-01-17 05:49:00,13.5,-0.4,30.21,East,90,10.0,16.0,53,0.00,,,0.00,meteohub,2013-01-17 10:49:00,
2013-01-17 05:55:00,13.5,0.0,30.21,ENE,68,16.0,16.0,54,0.00,,,0.00,meteohub,2013-01-17 10:55:00,
2013-01-17 06:00:00,13.5,0.0,30.21,East,90,14.0,17.0,54,0.00,,,0.00,meteohub,2013-01-17 11:00:00,
2013-01-17 06:04:00,13.5,0.0,30.21,East,90,15.0,17.0,54,0.00,,,0.00,meteohub,2013-01-17 11:04:00,
2013-01-17 06:07:00,13.5,0.0,30.21,East,90,12.0,17.0,54,0.00,,,0.00,meteohub,2013-01-17 11:07:00,
2013-01-17 06:12:00,13.3,-0.2,30.21,NE,45,11.0,18.0,54,0.00,,,0.00,meteohub,2013-01-17 11:12:00,
2013-01-17 06:20:00,13.3,0.1,30.21,NE,45,11.0,18.0,55,0.00,,,0.00,meteohub,2013-01-17 11:20:00,
2013-01-17 06:25:00,13.3,0.1,30.21,East,90,10.0,18.0,55,0.00,,,0.00,meteohub,2013-01-17 11:25:00,
2013-01-17 06:30:00,13.3,0.1,30.22,NE,45,9.0,15.0,55,0.00,,,0.00,meteohub,2013-01-17 11:30:00,
2013-01-17 06:35:00,13.3,0.1,30.22,East,90,11.0,16.0,55,0.00,,,0.00,meteohub,2013-01-17 11:35:00,
2013-01-17 06:40:00,13.3,0.1,30.22,East,90,11.0,16.0,55,0.00,,,0.00,meteohub,2013-01-17 11:40:00,
2013-01-17 06:45:00,13.3,0.1,30.22,NE,45,7.0,16.0,55,0.00,,,0.00,meteohub,2013-01-17 11:45:00,
2013-01-17 06:50:00,13.5,0.3,30.22,East,90,13.0,13.0,55,0.00,,,0.00,meteohub,2013-01-17 11:50:00,
2013-01-17 06:55:00,13.3,0.1,30.22,East,90,13.0,13.0,55,0.00,,,0.00,meteohub,2013-01-17 11:55:00,
2013-01-17 07:00:00,13.3,-0.2,30.22,East,90,10.0,14.0,54,0.00,,,0.00,meteohub,2013-01-17 12:00:00,
2013-01-17 07:05:00,13.3,-0.2,30.23,East,90,10.0,14.0,54,0.00,,,0.00,meteohub,2013-01-17 12:05:00,
2013-01-17 07:10:00,13.3,0.1,30.22,NE,45,8.0,13.0,55,0.00,,,0.00,meteohub,2013-01-17 12:10:00,
2013-01-17 07:15:00,13.3,0.1,30.23,East,90,8.0,11.0,55,0.00,,,0.00,meteohub,2013-01-17 12:15:00,
2013-01-17 07:20:00,13.3,0.1,30.23,East,90,8.0,12.0,55,0.00,,,0.00,meteohub,2013-01-17 12:20:00,
2013-01-17 07:25:00,13.3,0.1,30.23,NE,45,10.0,12.0,55,0.00,,,0.00,meteohub,2013-01-17 12:25:00,
2013-01-17 07:30:00,13.5,0.0,30.23,East,90,8.0,14.0,54,0.00,,,0.00,meteohub,2013-01-17 12:30:00,
2013-01-17 07:35:00,13.5,0.0,30.23,ENE,68,8.0,14.0,54,0.00,,,0.00,meteohub,2013-01-17 12:35:00,
2013-01-17 07:40:00,13.5,-0.4,30.23,ENE,68,10.0,14.0,53,0.00,,,0.00,meteohub,2013-01-17 12:40:00,
2013-01-17 07:45:00,13.5,-0.9,30.23,NE,45,9.0,11.0,52,0.00,,,0.00,meteohub,2013-01-17 12:45:00,
2013-01-17 07:50:00,13.5,-0.9,30.23,ENE,68,10.0,11.0,52,0.00,,,0.00,meteohub,2013-01-17 12:50:00,
2013-01-17 07:55:00,13.3,-1.1,30.24,NE,45,9.0,10.0,52,0.00,,,0.00,meteohub,2013-01-17 12:55:00,
2013-01-17 08:00:00,13.3,-1.1,30.24,East,90,10.0,11.0,52,0.00,,,0.00,meteohub,2013-01-17 13:00:00,
2013-01-17 08:05:00,13.3,-1.1,30.24,East,90,8.0,11.0,52,0.00,,,0.00,meteohub,2013-01-17 13:05:00,
2013-01-17 08:10:00,13.3,-1.1,30.24,NE,45,8.0,11.0,52,0.00,,,0.00,meteohub,2013-01-17 13:10:00,
2013-01-17 08:15:00,13.3,-1.1,30.25,East,90,6.0,10.0,52,0.00,,,0.00,meteohub,2013-01-17 13:15:00,
2013-01-17 08:20:00,13.3,-1.1,30.25,NE,45,6.0,9.0,52,0.00,,,0.00,meteohub,2013-01-17 13:20:00,
2013-01-17 08:25:00,13.3,-1.1,30.25,ENE,68,7.0,8.0,52,0.00,,,0.00,meteohub,2013-01-17 13:25:00,
2013-01-17 08:30:00,13.3,-1.1,30.25,East,90,5.0,7.0,52,0.00,,,0.00,meteohub,2013-01-17 13:30:00,
2013-01-17 08:35:00,13.1,-1.3,30.26,East,90,4.0,7.0,52,0.00,,,0.00,meteohub,2013-01-17 13:35:00,
2013-01-17 08:40:00,13.1,-1.3,30.26,NE,45,4.0,7.0,52,0.00,,,0.00,meteohub,2013-01-17 13:40:00,
2013-01-17 08:45:00,13.3,-0.6,30.26,NE,45,4.0,6.0,53,0.00,,,0.00,meteohub,2013-01-17 13:45:00,
2013-01-17 08:50:00,13.5,-0.4,30.26,NE,45,9.0,9.0,53,0.00,,,0.00,meteohub,2013-01-17 13:50:00,
2013-01-17 08:55:00,13.5,-0.4,30.27,East,90,8.0,11.0,53,0.00,,,0.00,meteohub,2013-01-17 13:55:00,
2013-01-17 09:00:00,13.5,0.0,30.27,East,90,8.0,11.0,54,0.00,,,0.00,meteohub,2013-01-17 14:00:00,
2013-01-17 09:05:00,13.5,0.0,30.27,East,90,8.0,10.0,54,0.00,,,0.00,meteohub,2013-01-17 14:05:00,
2013-01-17 09:10:00,13.8,0.3,30.28,NE,45,10.0,10.0,54,0.00,,,0.00,meteohub,2013-01-17 14:10:00,
2013-01-17 09:15:00,13.6,0.1,30.27,NE,45,9.0,11.0,54,0.00,,,0.00,meteohub,2013-01-17 14:15:00,
2013-01-17 09:20:00,13.5,0.0,30.27,ENE,68,8.0,11.0,54,0.00,,,0.00,meteohub,2013-01-17 14:20:00,
2013-01-17 09:25:00,13.6,0.1,30.28,NE,45,10.0,11.0,54,0.00,,,0.00,meteohub,2013-01-17 14:25:00,
2013-01-17 09:30:00,13.8,0.3,30.28,NE,45,9.0,11.0,54,0.00,,,0.00,meteohub,2013-01-17 14:30:00,
2013-01-17 09:35:00,13.8,-0.2,30.28,North,0,12.0,12.0,53,0.00,,,0.00,meteohub,2013-01-17 14:35:00,
2013-01-17 09:40:00,14.0,-1.7,30.29,North,0,8.0,14.0,49,0.00,,,0.00,meteohub,2013-01-17 14:40:00,
2013-01-17 09:45:00,14.2,-1.8,30.29,North,0,11.0,14.0,48,0.00,,,0.00,meteohub,2013-01-17 14:45:00,
2013-01-17 09:50:00,14.2,-1.8,30.29,NE,45,9.0,13.0,48,0.00,,,0.00,meteohub,2013-01-17 14:50:00,
2013-01-17 09:55:00,14.0,-2.6,30.29,NE,45,8.0,13.0,47,0.00,,,0.00,meteohub,2013-01-17 14:55:00,
2013-01-17 10:00:00,14.0,-2.6,30.28,NE,45,8.0,13.0,47,0.00,,,0.00,meteohub,2013-01-17 15:00:00,
2013-01-17 10:05:00,14.2,-2.4,30.28,NE,45,10.0,14.0,47,0.00,,,0.00,meteohub,2013-01-17 15:05:00,
2013-01-17 10:10:00,14.4,-2.2,30.29,North,0,10.0,14.0,47,0.00,,,0.00,meteohub,2013-01-17 15:10:00,
2013-01-17 10:15:00,14.4,-2.2,30.29,NE,45,9.0,14.0,47,0.00,,,0.00,meteohub,2013-01-17 15:15:00,
2013-01-17 10:16:00,14.5,-1.7,30.28,NNE,23,10.0,14.0,48,0.00,,,0.00,meteohub,2013-01-17 15:16:00,
2013-01-17 10:22:00,14.5,-1.7,30.28,NE,45,12.0,12.0,48,0.00,,,0.00,meteohub,2013-01-17 15:22:00,
2013-01-17 10:27:00,14.4,-1.7,30.29,NE,45,8.0,13.0,48,0.00,,,0.00,meteohub,2013-01-17 15:27:00,
2013-01-17 10:32:00,14.5,-1.1,30.28,North,0,11.0,13.0,49,0.00,,,0.00,meteohub,2013-01-17 15:32:00,
2013-01-17 10:42:00,14.4,-2.2,30.29,NE,45,12.0,15.0,47,0.00,,,0.00,meteohub,2013-01-17 15:42:00,
2013-01-17 10:47:00,14.4,-2.2,30.29,NNE,23,12.0,15.0,47,0.00,,,0.00,meteohub,2013-01-17 15:47:00,
2013-01-17 10:52:00,14.4,-2.6,30.29,North,0,11.0,15.0,46,0.00,,,0.00,meteohub,2013-01-17 15:52:00,
2013-01-17 10:57:00,14.4,-2.6,30.29,NE,45,13.0,15.0,46,0.00,,,0.00,meteohub,2013-01-17 15:57:00,
2013-01-17 11:02:00,14.4,-2.2,30.28,North,0,14.0,16.0,47,0.00,,,0.00,meteohub,2013-01-17 16:02:00,
2013-01-17 11:07:00,14.4,-2.2,30.28,North,0,14.0,16.0,47,0.00,,,0.00,meteohub,2013-01-17 16:07:00,
2013-01-17 11:12:00,14.2,-2.4,30.28,NE,45,13.0,15.0,47,0.00,,,0.00,meteohub,2013-01-17 16:12:00,
2013-01-17 11:17:00,14.0,-2.6,30.28,North,0,15.0,15.0,47,0.00,,,0.00,meteohub,2013-01-17 16:17:00,
2013-01-17 11:22:00,13.8,-1.8,30.28,North,0,11.0,15.0,49,0.00,,,0.00,meteohub,2013-01-17 16:22:00,
2013-01-17 11:27:00,14.0,-1.7,30.28,North,0,11.0,15.0,49,0.00,,,0.00,meteohub,2013-01-17 16:27:00,
2013-01-17 11:32:00,14.0,-2.0,30.28,North,0,13.0,15.0,48,0.00,,,0.00,meteohub,2013-01-17 16:32:00,
2013-01-17 11:37:00,13.8,-2.2,30.28,North,0,17.0,17.0,48,0.00,,,0.00,meteohub,2013-01-17 16:37:00,
2013-01-17 11:42:00,14.0,-1.7,30.27,North,0,15.0,17.0,49,0.00,,,0.00,meteohub,2013-01-17 16:42:00,
2013-01-17 11:47:00,14.0,-2.6,30.27,North,0,16.0,17.0,47,0.00,,,0.00,meteohub,2013-01-17 16:47:00,
2013-01-17 11:53:00,14.0,-3.5,30.28,North,0,16.0,17.0,45,0.00,,,0.00,meteohub,2013-01-17 16:53:00,
2013-01-17 11:58:00,14.0,-3.5,30.27,North,0,15.0,18.0,45,0.00,,,0.00,meteohub,2013-01-17 16:58:00,
2013-01-17 12:03:00,14.0,-3.5,30.27,North,0,16.0,18.0,45,0.00,,,0.00,meteohub,2013-01-17 17:03:00,
2013-01-17 12:04:00,14.0,-3.8,30.27,North,0,15.0,18.0,44,0.00,,,0.00,meteohub,2013-01-17 17:04:00,
2013-01-17 12:12:00,14.0,-3.5,30.27,NE,45,17.0,17.0,45,0.00,,,0.00,meteohub,2013-01-17 17:12:00,
2013-01-17 12:17:00,13.8,-2.7,30.27,NNE,23,12.0,17.0,47,0.00,,,0.00,meteohub,2013-01-17 17:17:00,
2013-01-17 12:22:00,13.8,-3.6,30.27,North,0,13.0,18.0,45,0.00,,,0.00,meteohub,2013-01-17 17:22:00,
2013-01-17 12:26:00,13.8,-3.6,30.26,NE,45,14.0,18.0,45,0.00,,,0.00,meteohub,2013-01-17 17:26:00,
2013-01-17 12:32:00,13.8,-3.6,30.27,North,0,16.0,16.0,45,0.00,,,0.00,meteohub,2013-01-17 17:32:00,
2013-01-17 12:37:00,13.8,-3.6,30.26,NE,45,17.0,17.0,45,0.00,,,0.00,meteohub,2013-01-17 17:37:00,
2013-01-17 12:42:00,14.0,-3.8,30.26,NE,45,15.0,17.0,44,0.00,,,0.00,meteohub,2013-01-17 17:42:00,
2013-01-17 12:47:00,14.2,-3.8,30.26,NE,45,13.0,17.0,44,0.00,,,0.00,meteohub,2013-01-17 17:47:00,
2013-01-17 12:52:00,14.5,-3.5,30.26,NE,45,17.0,17.0,44,0.00,,,0.00,meteohub,2013-01-17 17:52:00,
2013-01-17 12:57:00,14.4,-4.0,30.25,North,0,16.0,17.0,43,0.00,,,0.00,meteohub,2013-01-17 17:57:00,
2013-01-17 13:02:00,14.2,-4.2,30.25,NE,45,11.0,17.0,43,0.00,,,0.00,meteohub,2013-01-17 18:02:00,
2013-01-17 13:07:00,14.2,-4.2,30.25,NE,45,11.0,17.0,43,0.00,,,0.00,meteohub,2013-01-17 18:07:00,
2013-01-17 13:12:00,14.5,-3.8,30.25,North,0,15.0,16.0,43,0.00,,,0.00,meteohub,2013-01-17 18:12:00,
2013-01-17 13:17:00,14.4,-3.6,30.25,NE,45,15.0,19.0,44,0.00,,,0.00,meteohub,2013-01-17 18:17:00,
2013-01-17 13:22:00,14.4,-3.6,30.25,North,0,20.0,20.0,44,0.00,,,0.00,meteohub,2013-01-17 18:22:00,
2013-01-17 13:28:00,14.0,-4.4,30.25,North,0,16.0,20.0,43,0.00,,,0.00,meteohub,2013-01-17 18:28:00,
2013-01-17 13:32:00,13.8,-4.0,30.25,North,0,15.0,20.0,44,0.00,,,0.00,meteohub,2013-01-17 18:32:00,
2013-01-17 13:38:00,13.6,-3.8,30.25,NNW,338,15.0,22.0,45,0.00,,,0.00,meteohub,2013-01-17 18:38:00,
2013-01-17 13:41:00,13.5,-4.0,30.25,NE,45,17.0,22.0,45,0.00,,,0.00,meteohub,2013-01-17 18:41:00,
2013-01-17 13:47:00,13.5,-4.4,30.25,NNW,338,18.0,22.0,44,0.00,,,0.00,meteohub,2013-01-17 18:47:00,
2013-01-17 13:56:00,13.5,-4.4,30.25,North,0,16.0,22.0,44,0.00,,,0.00,meteohub,2013-01-17 18:56:00,
2013-01-17 14:01:00,13.3,-4.5,30.25,NE,45,17.0,21.0,44,0.00,,,0.00,meteohub,2013-01-17 19:01:00,
2013-01-17 14:05:00,13.5,-4.4,30.25,NE,45,20.0,21.0,44,0.00,,,0.00,meteohub,2013-01-17 19:05:00,
2013-01-17 14:07:00,13.5,-4.4,30.24,North,0,15.0,21.0,44,0.00,,,0.00,meteohub,2013-01-17 19:07:00,
2013-01-17 14:12:00,13.3,-4.5,30.24,North,0,17.0,22.0,44,0.00,,,0.00,meteohub,2013-01-17 19:12:00,
2013-01-17 14:21:00,13.5,-4.4,30.24,North,0,17.0,22.0,44,0.00,,,0.00,meteohub,2013-01-17 19:21:00,
2013-01-17 14:26:00,13.6,-4.2,30.25,NE,45,17.0,21.0,44,0.00,,,0.00,meteohub,2013-01-17 19:26:00,
2013-01-17 14:31:00,13.5,-4.4,30.24,NNW,338,21.0,21.0,44,0.00,,,0.00,meteohub,2013-01-17 19:31:00,
2013-01-17 14:36:00,13.6,-4.2,30.24,North,0,15.0,21.0,44,0.00,,,0.00,meteohub,2013-01-17 19:36:00,
2013-01-17 14:41:00,13.8,-3.6,30.24,NE,45,15.0,22.0,45,0.00,,,0.00,meteohub,2013-01-17 19:41:00,
2013-01-17 14:43:00,13.8,-4.0,30.25,NE,45,20.0,22.0,44,0.00,,,0.00,meteohub,2013-01-17 19:43:00,
2013-01-17 14:47:00,13.8,-4.0,30.25,North,0,20.0,22.0,44,0.00,,,0.00,meteohub,2013-01-17 19:47:00,
2013-01-17 14:57:00,13.6,-4.2,30.24,North,0,23.0,23.0,44,0.00,,,0.00,meteohub,2013-01-17 19:57:00,
2013-01-17 15:02:00,13.6,-4.2,30.24,NE,45,17.0,23.0,44,0.00,,,0.00,meteohub,2013-01-17 20:02:00,
2013-01-17 15:04:00,13.6,-4.2,30.24,NE,45,17.0,23.0,44,0.00,,,0.00,meteohub,2013-01-17 20:04:00,
2013-01-17 15:07:00,13.6,-4.2,30.24,NE,45,17.0,23.0,44,0.00,,,0.00,meteohub,2013-01-17 20:07:00,
2013-01-17 15:17:00,13.8,-4.0,30.24,NNE,23,17.0,20.0,44,0.00,,,0.00,meteohub,2013-01-17 20:17:00,
2013-01-17 15:22:00,14.0,-4.4,30.24,NNW,338,13.0,20.0,43,0.00,,,0.00,meteohub,2013-01-17 20:22:00,
2013-01-17 15:27:00,14.0,-4.4,30.24,NNE,23,14.0,21.0,43,0.00,,,0.00,meteohub,2013-01-17 20:27:00,
2013-01-17 15:32:00,14.0,-4.9,30.24,NE,45,15.0,21.0,42,0.00,,,0.00,meteohub,2013-01-17 20:32:00,
2013-01-17 15:37:00,14.0,-4.4,30.24,North,0,18.0,21.0,43,0.00,,,0.00,meteohub,2013-01-17 20:37:00,
2013-01-17 15:42:00,14.0,-4.4,30.24,WSW,248,17.0,19.0,43,0.00,,,0.00,meteohub,2013-01-17 20:42:00,
2013-01-17 15:47:00,14.2,-5.8,30.24,NE,45,23.0,23.0,40,0.00,,,0.00,meteohub,2013-01-17 20:47:00,
2013-01-17 15:52:00,14.2,-5.8,30.25,NE,45,17.0,23.0,40,0.00,,,0.00,meteohub,2013-01-17 20:52:00,
2013-01-17 15:57:00,14.0,-6.3,30.25,NNE,23,20.0,27.0,39,0.00,,,0.00,meteohub,2013-01-17 20:57:00,
2013-01-17 16:02:00,14.0,-5.8,30.25,NE,45,17.0,27.0,40,0.00,,,0.00,meteohub,2013-01-17 21:02:00,
2013-01-17 16:07:00,14.0,-5.8,30.25,NE,45,15.0,23.0,40,0.00,,,0.00,meteohub,2013-01-17 21:07:00,
2013-01-17 16:09:00,14.0,-5.8,30.25,NE,45,18.0,23.0,40,0.00,,,0.00,meteohub,2013-01-17 21:09:00,
2013-01-17 16:12:00,14.0,-6.9,30.25,NE,45,21.0,23.0,38,0.00,,,0.00,meteohub,2013-01-17 21:12:00,
2013-01-17 16:17:00,14.0,-7.4,30.25,NE,45,16.0,23.0,37,0.00,,,0.00,meteohub,2013-01-17 21:17:00,
2013-01-17 16:22:00,14.2,-7.2,30.25,NE,45,15.0,21.0,37,0.00,,,0.00,meteohub,2013-01-17 21:22:00,
2013-01-17 16:27:00,14.2,-6.2,30.25,NE,45,13.0,21.0,39,0.00,,,0.00,meteohub,2013-01-17 21:27:00,
2013-01-17 16:32:00,14.2,-6.2,30.26,NE,45,16.0,21.0,39,0.00,,,0.00,meteohub,2013-01-17 21:32:00,
2013-01-17 16:42:00,14.2,-7.2,30.26,NE,45,18.0,21.0,37,0.00,,,0.00,meteohub,2013-01-17 21:42:00,
2013-01-17 16:47:00,14.0,-8.0,30.25,NE,45,16.0,27.0,36,0.00,,,0.00,meteohub,2013-01-17 21:47:00,
2013-01-17 16:52:00,14.0,-7.4,30.26,NE,45,17.0,27.0,37,0.00,,,0.00,meteohub,2013-01-17 21:52:00,
2013-01-17 16:57:00,14.2,-7.2,30.27,NE,45,17.0,27.0,37,0.00,,,0.00,meteohub,2013-01-17 21:57:00,
2013-01-17 17:02:00,14.2,-8.5,30.27,NE,45,15.0,25.0,35,0.00,,,0.00,meteohub,2013-01-17 22:02:00,
2013-01-17 17:07:00,14.2,-8.5,30.27,NE,45,15.0,25.0,35,0.00,,,0.00,meteohub,2013-01-17 22:07:00,
2013-01-17 17:12:00,14.2,-9.6,30.27,NE,45,15.0,22.0,33,0.00,,,0.00,meteohub,2013-01-17 22:12:00,
2013-01-17 17:17:00,14.0,-9.8,30.27,NE,45,17.0,19.0,33,0.00,,,0.00,meteohub,2013-01-17 22:17:00,
2013-01-17 17:22:00,14.0,-10.5,30.27,NE,45,16.0,20.0,32,0.00,,,0.00,meteohub,2013-01-17 22:22:00,
2013-01-17 17:27:00,14.0,-9.8,30.28,NE,45,18.0,23.0,33,0.00,,,0.00,meteohub,2013-01-17 22:27:00,
2013-01-17 17:32:00,14.0,-9.8,30.28,NE,45,15.0,23.0,33,0.00,,,0.00,meteohub,2013-01-17 22:32:00,
2013-01-17 17:37:00,14.0,-8.7,30.27,NNE,23,19.0,23.0,35,0.00,,,0.00,meteohub,2013-01-17 22:37:00,
2013-01-17 17:42:00,14.0,-8.7,30.28,NE,45,23.0,23.0,35,0.00,,,0.00,meteohub,2013-01-17 22:42:00,
2013-01-17 17:47:00,13.8,-8.9,30.28,ENE,68,17.0,23.0,35,0.00,,,0.00,meteohub,2013-01-17 22:47:00,
2013-01-17 17:52:00,14.0,-9.2,30.28,NE,45,17.0,23.0,34,0.00,,,0.00,meteohub,2013-01-17 22:52:00,
2013-01-17 17:57:00,14.0,-8.7,30.29,NE,45,13.0,23.0,35,0.00,,,0.00,meteohub,2013-01-17 22:57:00,
2013-01-17 18:02:00,13.8,-8.1,30.29,East,90,19.0,20.0,36,0.00,,,0.00,meteohub,2013-01-17 23:02:00,
2013-01-17 18:07:00,13.6,-8.3,30.30,NE,45,15.0,21.0,36,0.00,,,0.00,meteohub,2013-01-17 23:07:00,
2013-01-17 18:12:00,13.6,-7.8,30.30,NE,45,19.0,30.0,37,0.00,,,0.00,meteohub,2013-01-17 23:12:00,
2013-01-17 18:17:00,13.5,-8.5,30.29,North,0,19.0,30.0,36,0.00,,,0.00,meteohub,2013-01-17 23:17:00,
2013-01-17 18:22:00,13.5,-8.0,30.30,NNE,23,23.0,30.0,37,0.00,,,0.00,meteohub,2013-01-17 23:22:00,
2013-01-17 18:27:00,13.5,-8.5,30.30,NE,45,20.0,25.0,36,0.00,,,0.00,meteohub,2013-01-17 23:27:00,
2013-01-17 18:32:00,13.3,-8.7,30.30,NE,45,19.0,24.0,36,0.00,,,0.00,meteohub,2013-01-17 23:32:00,
2013-01-17 18:38:00,13.3,-8.1,30.30,NE,45,22.0,24.0,37,0.00,,,0.00,meteohub,2013-01-17 23:38:00,
2013-01-17 18:43:00,13.3,-7.6,30.30,NNE,23,21.0,23.0,38,0.00,,,0.00,meteohub,2013-01-17 23:43:00,
2013-01-17 18:48:00,13.3,-7.1,30.30,NE,45,23.0,23.0,39,0.00,,,0.00,meteohub,2013-01-17 23:48:00,
2013-01-17 18:53:00,13.3,-7.1,30.30,NNE,23,21.0,23.0,39,0.00,,,0.00,meteohub,2013-01-17 23:53:00,
2013-01-17 18:58:00,13.3,-7.1,30.30,NE,45,17.0,23.0,39,0.00,,,0.00,meteohub,2013-01-17 23:58:00,
2013-01-17 19:03:00,13.3,-7.1,30.31,NE,45,20.0,23.0,39,0.00,,,0.00,meteohub,2013-01-18 00:03:00,
2013-01-17 19:08:00,13.3,-6.5,30.31,NE,45,17.0,22.0,40,0.00,,,0.00,meteohub,2013-01-18 00:08:00,
2013-01-17 19:13:00,13.3,-6.5,30.31,NE,45,19.0,22.0,40,0.00,,,0.00,meteohub,2013-01-18 00:13:00,
2013-01-17 19:18:00,13.3,-7.6,30.31,North,0,23.0,23.0,38,0.00,,,0.00,meteohub,2013-01-18 00:18:00,
2013-01-17 19:23:00,13.3,-7.6,30.31,North,0,27.0,27.0,38,0.00,,,0.00,meteohub,2013-01-18 00:23:00,
2013-01-17 19:28:00,13.3,-6.5,30.31,North,0,26.0,26.0,40,0.00,,,0.00,meteohub,2013-01-18 00:28:00,
2013-01-17 19:33:00,13.1,-7.8,30.32,NE,45,20.0,27.0,38,0.00,,,0.00,meteohub,2013-01-18 00:33:00,
2013-01-17 19:38:00,13.1,-6.7,30.32,NE,45,27.0,27.0,40,0.00,,,0.00,meteohub,2013-01-18 00:38:00,
2013-01-17 19:44:00,13.1,-7.2,30.32,NNE,23,20.0,27.0,39,0.00,,,0.00,meteohub,2013-01-18 00:44:00,
2013-01-17 19:49:00,13.1,-6.7,30.32,NE,45,24.0,27.0,40,0.00,,,0.00,meteohub,2013-01-18 00:49:00,
2013-01-17 19:54:00,12.9,-6.3,30.32,NE,45,19.0,27.0,41,0.00,,,0.00,meteohub,2013-01-18 00:54:00,
2013-01-17 19:59:00,12.9,-7.4,30.32,NE,45,21.0,27.0,39,0.00,,,0.00,meteohub,2013-01-18 00:59:00,
2013-01-17 20:04:00,12.9,-6.9,30.32,NNE,23,22.0,27.0,40,0.00,,,0.00,meteohub,2013-01-18 01:04:00,
2013-01-17 20:09:00,12.9,-6.9,30.33,NE,45,21.0,23.0,40,0.00,,,0.00,meteohub,2013-01-18 01:09:00,
2013-01-17 20:14:00,12.7,-6.5,30.33,North,0,18.0,23.0,41,0.00,,,0.00,meteohub,2013-01-18 01:14:00,
2013-01-17 20:19:00,12.7,-7.1,30.33,North,0,17.0,22.0,40,0.00,,,0.00,meteohub,2013-01-18 01:19:00,
2013-01-17 20:24:00,12.6,-7.8,30.33,NE,45,16.0,22.0,39,0.00,,,0.00,meteohub,2013-01-18 01:24:00,
2013-01-17 20:29:00,12.6,-8.3,30.33,North,0,21.0,22.0,38,0.00,,,0.00,meteohub,2013-01-18 01:29:00,
2013-01-17 20:34:00,12.4,-8.0,30.33,North,0,20.0,23.0,39,0.00,,,0.00,meteohub,2013-01-18 01:34:00,
2013-01-17 20:39:00,12.6,-7.2,30.34,NE,45,17.0,23.0,40,0.00,,,0.00,meteohub,2013-01-18 01:39:00,
2013-01-17 20:44:00,12.6,-7.2,30.33,NNE,23,21.0,23.0,40,0.00,,,0.00,meteohub,2013-01-18 01:44:00,
2013-01-17 20:49:00,12.6,-5.6,30.34,NE,45,17.0,21.0,43,0.00,,,0.00,meteohub,2013-01-18 01:49:00,
2013-01-17 20:54:00,12.6,-5.3,30.33,NE,45,17.0,21.0,44,0.00,,,0.00,meteohub,2013-01-18 01:54:00,
2013-01-17 20:59:00,12.6,-6.2,30.33,North,0,17.0,22.0,42,0.00,,,0.00,meteohub,2013-01-18 01:59:00,
2013-01-17 21:04:00,12.6,-6.2,30.34,North,0,17.0,23.0,42,0.00,,,0.00,meteohub,2013-01-18 02:04:00,
2013-01-17 21:09:00,12.4,-6.9,30.34,North,0,19.0,23.0,41,0.00,,,0.00,meteohub,2013-01-18 02:09:00,
2013-01-17 21:14:00,12.6,-6.2,30.34,NE,45,15.0,23.0,42,0.00,,,0.00,meteohub,2013-01-18 02:14:00,
2013-01-17 21:19:00,12.6,-5.3,30.34,North,0,15.0,21.0,44,0.00,,,0.00,meteohub,2013-01-18 02:19:00,
2013-01-17 21:24:00,12.6,-5.3,30.34,North,0,17.0,21.0,44,0.00,,,0.00,meteohub,2013-01-18 02:24:00,
2013-01-17 21:29:00,12.6,-5.3,30.34,NNE,23,15.0,21.0,44,0.00,,,0.00,meteohub,2013-01-18 02:29:00,
2013-01-17 21:35:00,12.4,-5.8,30.34,North,0,16.0,21.0,43,0.00,,,0.00,meteohub,2013-01-18 02:35:00,
2013-01-17 21:40:00,12.4,-5.4,30.34,NE,45,19.0,23.0,44,0.00,,,0.00,meteohub,2013-01-18 02:40:00,
2013-01-17 21:45:00,12.4,-5.4,30.34,NNE,23,18.0,23.0,44,0.00,,,0.00,meteohub,2013-01-18 02:45:00,
2013-01-17 21:50:00,12.6,-5.3,30.34,North,0,16.0,20.0,44,0.00,,,0.00,meteohub,2013-01-18 02:50:00,
2013-01-17 21:55:00,12.6,-5.3,30.34,NE,45,18.0,21.0,44,0.00,,,0.00,meteohub,2013-01-18 02:55:00,
2013-01-17 22:00:00,12.6,-5.3,30.35,NNE,23,14.0,23.0,44,0.00,,,0.00,meteohub,2013-01-18 03:00:00,
2013-01-17 22:05:00,12.6,-5.3,30.34,NNW,338,17.0,23.0,44,0.00,,,0.00,meteohub,2013-01-18 03:05:00,
2013-01-17 22:10:00,12.6,-4.7,30.34,North,0,20.0,20.0,45,0.00,,,0.00,meteohub,2013-01-18 03:10:00,
2013-01-17 22:15:00,12.7,-4.5,30.34,NE,45,17.0,27.0,45,0.00,,,0.00,meteohub,2013-01-18 03:15:00,
2013-01-17 22:20:00,12.7,-4.5,30.34,NE,45,14.0,27.0,45,0.00,,,0.00,meteohub,2013-01-18 03:20:00,
2013-01-17 22:25:00,12.7,-4.5,30.34,NE,45,15.0,21.0,45,0.00,,,0.00,meteohub,2013-01-18 03:25:00,
2013-01-17 22:30:00,12.7,-4.5,30.34,North,0,18.0,21.0,45,0.00,,,0.00,meteohub,2013-01-18 03:30:00,
2013-01-17 22:35:00,12.7,-4.5,30.34,North,0,17.0,23.0,45,0.00,,,0.00,meteohub,2013-01-18 03:35:00,
2013-01-17 22:40:00,12.9,-4.4,30.34,NE,45,18.0,23.0,45,0.00,,,0.00,meteohub,2013-01-18 03:40:00,
2013-01-17 22:45:00,12.9,-4.4,30.34,NE,45,17.0,23.0,45,0.00,,,0.00,meteohub,2013-01-18 03:45:00,
2013-01-17 22:50:00,12.9,-4.4,30.34,North,0,15.0,19.0,45,0.00,,,0.00,meteohub,2013-01-18 03:50:00,
2013-01-17 22:55:00,12.9,-4.4,30.34,NNE,23,15.0,18.0,45,0.00,,,0.00,meteohub,2013-01-18 03:55:00,
2013-01-17 23:01:00,12.9,-4.4,30.34,NE,45,20.0,21.0,45,0.00,,,0.00,meteohub,2013-01-18 04:01:00,
2013-01-17 23:06:00,12.9,-4.4,30.34,NE,45,20.0,21.0,45,0.00,,,0.00,meteohub,2013-01-18 04:06:00,
2013-01-17 23:11:00,12.9,-4.4,30.34,North,0,17.0,21.0,45,0.00,,,0.00,meteohub,2013-01-18 04:11:00,
2013-01-17 23:16:00,12.9,-4.0,30.34,North,0,21.0,21.0,46,0.00,,,0.00,meteohub,2013-01-18 04:16:00,
2013-01-17 23:21:00,13.1,-4.2,30.34,NE,45,17.0,21.0,45,0.00,,,0.00,meteohub,2013-01-18 04:21:00,
2013-01-17 23:26:00,13.1,-4.2,30.34,NE,45,15.0,21.0,45,0.00,,,0.00,meteohub,2013-01-18 04:26:00,
2013-01-17 23:31:00,13.1,-3.8,30.35,North,0,15.0,21.0,46,0.00,,,0.00,meteohub,2013-01-18 04:31:00,
2013-01-17 23:36:00,13.1,-4.2,30.35,NE,45,15.0,21.0,45,0.00,,,0.00,meteohub,2013-01-18 04:36:00,
2013-01-17 23:41:00,13.1,-4.2,30.35,NE,45,12.0,20.0,45,0.00,,,0.00,meteohub,2013-01-18 04:41:00,
2013-01-17 23:46:00,13.3,-3.6,30.35,NE,45,17.0,17.0,46,0.00,,,0.00,meteohub,2013-01-18 04:46:00,
2013-01-17 23:51:00,13.3,-3.6,30.35,NE,45,13.0,18.0,46,0.00,,,0.00,meteohub,2013-01-18 04:51:00,
2013-01-17 23:56:00,13.5,-3.5,30.35,North,0,15.0,18.0,46,0.00,,,0.00,meteohub,2013-01-18 04:56:00,